Location: Altmatt
(47.1333°N, 8.7000°E)
Time: 18:58:06
(UTC+00:00)

Resurs 1-4 Rocket - Pass Details

Date: 13 July 2020
Orbit: 800 x 814 km, 98.6° (Epoch: 12 August)

Event Time Altitude Azimuth Distance (km) Brightness Sun altitude
Rises 23:42:17 0° 29° (NNE) 3,347 6.4 -21.2°
Reaches altitude 10° 23:45:33 10° 50° (NE) 2,407 5.1 -21.2°
Maximum altitude 23:48:52 17° 89° (E) 1,978 4.2 -21.1°
Enters shadow 23:51:17 13° 119° (ESE) 2,211 4.1 -21.1°
